Flag for Turkey Weather past 2 weeks in Bodrum, Turkey

Now
57 °F

Passing clouds.


Feels Like: 55 °F
Forecast: 59 / 68 °F
Wind: 10 mph from Southeast

Location: Bodrum Milas Airport

Current Time: Mar 6, 2015 at 7:07:16 AM

Latest Report: Mar 6, 2015 at 6:20 AM


Visibility: N/A

Pressure: 30.12 "Hg

Humidity: 72%

Dew point: 48 °F

Location of BodrumLocation

Historic Weather in Bodrum — Graph

°F

Bodrum temperature yesterday

Maximum temperature yesterday: 66 °F (at 1:50 PM)
Minimum temperature yesterday: 36 °F (at 6:50 AM)
Average temperature yesterday: 53 °F

Past Weeks' High & Low Weather Summary

 TemperatureHumidityPressure
High68 °F (Feb 27, 11:20 AM)100% (Feb 25, 9:50 PM)30.24 "Hg (Feb 25, 9:50 PM)
Low32 °F (Feb 19, 5:20 AM)32% (Feb 20, 10:50 AM)29.71 "Hg (Feb 24, 3:20 PM)
Average52 °F74%30.01 "Hg
* Reported Feb 19 5:20 AM — Mar 6 5:50 AM, Bodrum, Weather by CustomWeather, © 2015

Note: Actual official high and low records may vary slightly from our data, if they occured in-between our weather recording intervals... More about our weather records

Advertising

Bodrum weather history for previous 24 hours

 ConditionsComfort  
Time TempWeatherWind HumidityBarometerVisibility
5:50 AM
Fri, Mar 6
55 °FPassing clouds.9 mph77%30.12 "HgN/A
5:20 AM55 °FPassing clouds.7 mph72%30.12 "HgN/A
4:50 AM55 °FPassing clouds.8 mph72%30.12 "HgN/A
4:20 AM55 °FPassing clouds.6 mph72%30.12 "HgN/A
3:50 AM55 °FPassing clouds.6 mph72%30.12 "HgN/A
3:20 AM57 °FPassing clouds.9 mph72%30.12 "HgN/A
2:50 AM57 °FPassing clouds.9 mph67%30.12 "HgN/A
2:20 AM57 °FPassing clouds.10 mph72%30.12 "HgN/A
1:50 AM57 °FPassing clouds.9 mph67%30.15 "HgN/A
1:20 AM55 °FPassing clouds.7 mph77%30.15 "HgN/A
12:50 AM54 °FPassing clouds.3 mph77%30.15 "HgN/A
12:20 AM52 °FPassing clouds.1 mph88%30.15 "HgN/A
11:50 PM
Thu, Mar 5
52 °FPassing clouds.1 mph82%30.15 "HgN/A
11:20 PM55 °FPassing clouds.5 mph72%30.15 "HgN/A
10:50 PM55 °FPassing clouds.6 mph72%30.15 "HgN/A
10:20 PM55 °FPassing clouds.6 mph72%30.15 "HgN/A
9:50 PM55 °FPassing clouds.3 mph72%30.15 "HgN/A
9:20 PM55 °FPassing clouds.5 mph72%30.15 "HgN/A
8:50 PM57 °FPassing clouds.8 mph67%30.15 "HgN/A
8:20 PM57 °FPassing clouds.9 mph72%30.15 "HgN/A
7:50 PM57 °FPassing clouds.10 mph72%30.12 "HgN/A
7:20 PM57 °FPassing clouds.7 mph72%30.12 "HgN/A
6:50 PM59 °FPassing clouds.7 mph68%30.12 "HgN/A
6:20 PM61 °FPassing clouds.8 mph59%30.12 "HgN/A
5:50 PM61 °FPartly sunny.8 mph59%30.12 "HgN/A
5:20 PM63 °FPartly sunny.14 mph56%30.09 "HgN/A
4:50 PM64 °FPartly sunny.13 mph52%30.09 "HgN/A
4:20 PM64 °FPartly sunny.15 mph60%30.09 "HgN/A
3:50 PM66 °FPartly sunny.13 mph52%30.09 "HgN/A
3:20 PM66 °FPartly sunny.12 mph52%30.09 "HgN/A
2:50 PM66 °FPartly sunny.12 mph49%30.09 "HgN/A
2:20 PM66 °FPartly sunny.10 mph49%30.09 "HgN/A
1:50 PM66 °FPartly sunny.3 mph43%30.12 "HgN/A
1:20 PM64 °FPartly sunny.7 mph49%30.12 "HgN/A
12:50 PM64 °FPartly sunny.6 mph46%30.15 "HgN/A
12:20 PM64 °FPassing clouds.5 mph46%30.15 "HgN/A
11:50 AM63 °FPassing clouds.8 mph45%30.15 "HgN/A
11:20 AM61 °FPassing clouds.8 mph48%30.15 "HgN/A
10:50 AM59 °FPassing clouds.5 mph51%30.15 "HgN/A
10:20 AM57 °FSunny.1 mph55%30.15 "Hg10 mi
9:50 AM54 °FSunny.2 mph63%30.15 "Hg10 mi
9:20 AM52 °FPassing clouds.3 mph67%30.15 "HgN/A
8:50 AM48 °FPassing clouds.3 mph71%30.15 "HgN/A
8:20 AM45 °FPassing clouds.3 mph81%30.15 "HgN/A
7:50 AM41 °FClear.5 mph87%30.15 "Hg4 mi
7:20 AM37 °FClear.3 mph87%30.15 "Hg4 mi
Weather by CustomWeather, © 2015

See weather overviewHow to use our weather pages